Overview Statistics Trail Chart Weather Telemetry Raw packets
 

This is the latest recevied weather packets stored in our database for station/object K4FDS. If no packets are shown the sender has not sent any weather packets the latest 10 day(s).

<< 6 7 8 9 10 11 12 >>
Time Temp. Humidity Pressure Rain* Wind** Luminosity Snow
1777511959 16.11° C 92% 1005.2 hPa 0 mm 0 m/s - -
1777510159 16.11° C 99% 1004.5 hPa 0 mm 0 m/s - -
1777508359 16.67° C 99% 1004.3 hPa 1.78 mm 0 m/s - -
1777506559 16.67° C 99% 1003.6 hPa 3.3 mm 0.45 m/s, 226° - -
1777504759 16.67° C 99% 1003.2 hPa 3.3 mm 0.45 m/s, 213° - -
1777502959 16.67° C 98% 1003.2 hPa 0.25 mm 0 m/s - -
1777501159 16.67° C 98% 1003 hPa 0 mm 0 m/s - -
1777499359 16.67° C 98% 1003.1 hPa 0 mm 0 m/s - -
1777497559 16.67° C 99% 1003.4 hPa 0 mm 0 m/s - -
1777495759 16.67° C 98% 1003.9 hPa 0 mm 0 m/s - -
1777493959 16.67° C 98% 1004.5 hPa 0 mm 0.45 m/s, 193° - -
1777492159 16.11° C 98% 1004.8 hPa 0 mm 0 m/s - -
1777490359 16.11° C 97% 1005.7 hPa 0 mm 0 m/s - -
1777488559 16.11° C 96% 1005.9 hPa 0 mm 0 m/s - -
1777486759 16.67° C 96% 1005.9 hPa 0 mm 0 m/s - -
1777484959 16.11° C 97% 1006.7 hPa 0 mm 0 m/s - -
1777483159 15.56° C 98% 1007.1 hPa 0.51 mm 0 m/s - -
1777481359 15.56° C 97% 1007.4 hPa 0.51 mm 0 m/s - -
1777479559 15° C 97% 1008.9 hPa 4.57 mm 0 m/s - -
1777477759 15° C 97% 1008.9 hPa 4.57 mm 0 m/s - -
1777475959 15° C 97% 1008.9 hPa 4.57 mm 0 m/s - -
1777474159 15° C 97% 1008.9 hPa 4.57 mm 0 m/s - -
1777472359 15° C 93% 1009 hPa 0 mm 0 m/s - -
1777470559 15° C 93% 1009 hPa 0 mm 0 m/s - -
1777468759 15° C 93% 1009.2 hPa 0 mm 0 m/s - -

* Rain latest hour (hover to see other rain measurements)
** Current wind speed in m/s (hover to see current wind gust speed)